Location: Chavagne
(48.0544°N, 1.7857°W)
Time: 11:32:05
(UTC+00:00)

Daily predictions for brighter satellites

Satellite Brightness Start Highest point End
(mag) Time Altitude Azimuth Time Altitude Azimuth Time Altitude Azimuth
Cosmos 1782 Rocket 3.6 19:29:52 10° S 19:34:14 88° W 19:38:42 10° N
Cosmos 1486 Rocket 4.2 19:29:25 10° NNW 19:34:34 55° ENE 19:39:39 10° SE
CZ-4 R/B 1.5 19:31:57 10° S 19:35:51 74° WSW 19:39:43 10° NNW
SJ 16-02 2.9 19:38:46 10° NW 19:42:45 36° WSW 19:46:42 10° S
CZ-4B R/B 4.4 19:41:50 10° SSW 19:45:09 33° W 19:48:25 10° NNW
Resurs 01 Rocket 1.7 19:41:12 10° SSE 19:45:34 63° ENE 19:49:58 10° N
DELTA 2 DEB (DPAF) 4.1 19:42:23 10° NNE 19:46:34 56° ESE 19:50:43 10° S
CENTAUR R/B 4.4 19:41:21 10° NW 19:47:54 30° NNE 19:55:23 10° ENE
NOSS 3-1 (A) 3.2 19:45:54 10° SSW 19:50:36 48° ESE 19:56:10 10° NE
Cosmos 1300 Rocket 3.9 19:48:18 10° SSW 19:52:40 72° W 19:57:06 10° N
ERS-1 Rocket 4.4 19:51:27 10° ESE 19:55:07 21° ENE 19:58:49 10° NNE
Tiangong -0.1 19:54:58 10° S 19:56:28 13° SSE 19:57:17 12° SE
USA 229 DEB 4.4 19:54:58 10° SSE 19:59:48 25° ESE 20:04:55 10° ENE
USA 229 4.4 19:55:06 10° SSE 19:59:54 25° ESE 20:05:00 10° ENE
Cosmos 1934 Rocket 4.4 19:54:39 10° N 20:00:31 44° ENE 20:06:24 10° SE
Cosmos 2151 Rocket 4.0 19:58:11 10° SSE 20:02:17 40° E 20:06:26 10° NNE
USA 234 3.4 19:58:35 10° SE 20:05:07 72° SW 20:11:40 10° WNW
USA 281 3.3 19:59:20 10° SE 20:05:52 70° ENE 20:12:25 10° NNW
ATLAS CENTAUR R/B 3.5 20:04:52 10° N 20:06:56 14° NNE 20:09:02 10° ENE
Cosmos 2227 Rocket 3.6 20:03:32 10° N 20:08:15 26° NE 20:12:21 12° E
NOSS 3-1 (C) 3.6 20:06:00 10° SW 20:10:59 66° NW 20:17:02 10° NE
Iridium 2 4.0 20:10:22 10° NNE 20:13:02 30° E 20:14:17 21° ESE
SL-4 R/B 2.3 20:11:32 10° WNW 20:15:06 49° N 20:17:57 14° E
Cosmos 371 Rocket 3.2 20:12:22 10° NNW 20:17:10 73° ENE 20:21:08 15° SSE
MetOp-B 4.4 20:15:38 15° SE 20:19:58 51° ENE 20:25:09 10° N
Cosmos 1697 Rocket 4.1 20:18:57 16° ESE 20:20:02 17° E 20:23:36 10° ENE
CSL-04 Rocket 4.1 20:15:20 10° S 20:20:48 64° WSW 20:26:14 10° NNW
Cosmos 304 Rocket 3.8 20:16:15 10° NNW 20:21:00 65° ENE 20:24:31 18° SE
Cosmos 1777 Rocket 4.0 20:16:19 10° NNW 20:21:37 70° ENE 20:25:46 17° SSE
COSMOS 2455 3.4 20:18:00 10° NNW 20:23:48 46° NE 20:27:59 18° ESE
Okean 2 Rocket 3.1 20:19:50 10° S 20:24:17 63° E 20:28:44 10° NNE
ATLAS 3B R/B 2.9 20:17:11 10° SW 20:24:18 87° SE 20:31:58 10° NE
SPOT 5 3.2 20:26:04 17° SE 20:30:06 58° ENE 20:35:15 10° N
Cosmos 405 Rocket 4.2 20:33:26 19° E 20:33:26 19° E 20:36:01 10° NE
CZ-4C R/B 3.4 20:30:07 10° NW 20:36:42 49° NE 20:42:37 18° ESE
BlueWalker 3 1.9 20:33:20 10° SW 20:37:05 58° SSE 20:40:36 12° ENE
Cosmos 2297 Rocket 2.3 20:31:29 10° NNW 20:37:06 62° ENE 20:40:35 23° SE
Spot 2 Rocket 4.2 20:36:25 22° ESE 20:38:56 37° ENE 20:43:33 10° N
Cosmos 1503 Rocket 4.3 20:33:53 10° NNW 20:39:15 71° WSW 20:43:37 16° S
Cosmos 1354 Rocket 4.0 20:36:52 10° NNW 20:42:14 86° WSW 20:45:57 20° SSE
Terra 2.4 20:40:08 25° ESE 20:42:20 40° ENE 20:46:45 10° N
Cosmos 1656 3.6 20:37:18 10° S 20:42:45 60° ESE 20:48:11 10° NNE
Cosmos 1455 Rocket 3.9 20:46:45 28° ESE 20:47:28 29° E 20:51:16 10° NNE
Okean 1 Rocket 3.0 20:44:00 15° S 20:47:37 68° E 20:52:05 10° NNE
Sich 1 Rocket 3.7 20:43:34 10° SSW 20:47:58 75° W 20:52:28 10° N
ATLAS 5 CENTAUR R/B 3.1 20:44:55 10° W 20:48:00 30° NW 20:51:27 10° NNE
Iridium 4 Rocket 3.7 20:44:02 15° S 20:48:41 70° E 20:54:29 10° N
USA 245 4.0 20:46:54 26° SE 20:49:37 56° ENE 20:53:52 10° N
Cosmos 332 Rocket 4.0 20:44:53 10° NNW 20:49:41 57° ENE 20:51:53 30° SE
Cosmos 2219 4.4 20:46:50 10° NNW 20:51:48 30° NE 20:54:33 20° E
Okean-O 3.2 20:48:36 13° S 20:52:21 55° W 20:56:42 10° NNW
CZ-4C R/B 3.6 20:52:50 10° N 20:56:12 56° WNW 20:59:30 10° SSW
Ariane Rocket 3.2 20:56:31 31° SE 20:58:42 54° ENE 21:03:37 10° N
Genesis I 3.6 20:56:03 10° NW 20:59:34 48° WSW 21:00:44 34° S
Cosmos 1437 Rocket 3.3 20:56:00 10° N 20:59:45 41° ENE 21:00:22 38° E
Cosmos 1763 Rocket 3.7 20:57:44 28° SSE 20:59:53 44° ESE 21:04:45 10° NE
Cosmos 2263 Rocket 3.6 20:58:53 10° N 21:03:33 26° NE 21:06:06 19° E
Cosmos 44 3.4 20:59:07 10° SSW 21:04:28 65° ESE 21:09:45 10° NE
NOSS 8 (F) 4.3 21:02:17 10° NW 21:05:26 83° NE 21:06:04 57° SE
Okean O Rocket 3.9 21:04:00 10° SW 21:07:20 21° W 21:10:43 10° NW
Cosmos 990 Rocket 3.9 21:04:47 10° NNW 21:09:58 70° ENE 21:11:52 39° SE
ARGOS Delta rocket 4.5 21:08:36 34° ESE 21:10:30 49° ENE 21:15:46 10° N
USA 267 4.1 21:04:57 10° NE 21:11:16 52° NNW 21:17:33 10° W
Cosmos 1605 Rocket 4.0 21:09:01 10° N 21:15:28 90° WSW 21:19:09 27° S
Aureole 1 Rocket 2.9 21:13:28 10° N 21:15:56 40° NE 21:15:56 40° NE
Cosmos 540 Rocket 3.6 21:18:44 43° SE 21:19:35 47° ESE 21:24:30 10° NNE
Resurs 01 Rocket 4.3 21:19:49 10° SW 21:22:26 15° W 21:25:05 10° NW
MOS 1 Rocket 3.3 21:25:21 48° E 21:25:49 51° ENE 21:30:05 10° N
Cosmos 2058 3.2 21:22:34 10° N 21:26:27 48° ENE 21:26:27 48° ENE
Cosmos 1626 Rocket 4.4 21:25:01 10° N 21:29:05 35° ENE 21:29:06 35° ENE
Cosmos 468 Rocket 4.0 21:31:31 50° SSE 21:32:25 58° ESE 21:37:32 10° NNE
ERS-1 Rocket 3.3 21:31:22 34° S 21:33:26 62° WSW 21:38:26 10° NNW
SPOT 3 Rocket 3.5 21:35:46 45° S 21:37:26 81° WSW 21:42:39 10° NNW
CENTAUR R/B 3.5 21:32:11 10° NW 21:40:11 63° NE 21:44:47 32° ESE
Cosmos 841 Rocket 4.4 21:43:35 31° ENE 21:43:35 31° ENE 21:47:05 10° NE
Landsat 5 3.5 21:39:17 10° NNE 21:43:13 65° ENE 21:43:13 65° ENE
ATLAS CENTAUR R/B 1.3 21:41:35 10° NW 21:45:04 65° NNE 21:45:04 65° NNE
Cosmos 1544 Rocket 4.2 21:49:27 41° ENE 21:49:27 41° ENE 21:52:45 10° NNE
Intercosmos 25 3.8 21:43:58 10° N 21:48:12 52° NE 21:48:12 52° NE
USA 229 DEB 3.7 21:43:47 10° SW 21:49:57 75° NW 21:56:50 10° NE
USA 229 3.7 21:43:52 10° SW 21:50:03 76° NW 21:56:55 10° NE
Cosmos 1727 Rocket 3.9 21:49:08 42° S 21:51:24 81° E 21:57:40 10° N
Cosmos 2100 Rocket 4.0 21:46:21 10° N 21:52:44 69° E 21:54:16 51° SE
Cosmos 2227 Rocket 2.3 21:47:10 10° NNW 21:52:50 70° WSW 21:54:10 51° S
H-2A R/B 4.2 21:54:16 19° NE 21:54:16 19° NE 21:56:19 10° NNE
SL-4 R/B 2.9 21:50:30 10° WNW 21:52:47 36° W 21:52:47 36° W
Cosmos 1892 Rocket 4.3 21:50:21 10° NNW 21:54:29 45° W 21:55:16 40° SW
Cosmos 1980 Rocket 2.7 21:55:14 42° E 21:55:14 42° E 21:59:52 10° NE
Cosmos 292 Rocket 3.6 21:51:54 10° NNW 21:56:41 76° ENE 21:56:52 75° E
Cosmos 1000 Rocket 4.4 22:01:36 57° SSE 22:02:44 70° E 22:08:51 10° NNE
Cosmos 1697 Rocket 2.7 22:00:32 33° SSW 22:03:15 82° WNW 22:08:57 10° NNE
Cosmos 1937 Rocket 3.4 21:57:57 10° NNW 22:03:18 72° ENE 22:03:46 67° ESE
Okean 1-7 Rocket 4.1 22:00:11 10° N 22:04:09 49° NE 22:04:09 49° NE
Cosmos 2123 Rocket 4.2 22:05:45 50° ESE 22:06:20 51° E 22:12:26 10° NNE
MetOp-A 3.9 22:08:40 53° WNW 22:08:40 53° WNW 22:11:52 10° NNW
Cosmos 405 Rocket 4.1 22:07:46 32° W 22:08:18 33° WNW 22:11:42 10° N
COSMOS 2455 3.7 22:04:07 10° NW 22:09:41 40° WSW 22:11:08 35° SW
Cosmos 1602 Rocket 4.1 22:07:44 10° N 22:11:18 48° NE 22:11:18 48° NE
Cosmos 1758 Rocket 4.0 22:08:17 10° N 22:12:06 56° NE 22:12:06 56° NE
Cosmos 2228 4.0 22:14:51 38° NE 22:14:51 38° NE 22:17:38 10° NNE
BlueWalker 3 3.0 22:11:45 10° W 22:15:06 44° NNW 22:15:06 44° NNW
ATLAS 3B R/B 4.4 22:09:19 10° W 22:15:59 36° NNW 22:22:59 10° NE
Cosmos 1898 Rocket 3.5 22:10:45 10° NNW 22:15:59 69° WSW 22:16:18 67° SW
ARIANE 5 R/B 3.3 22:17:17 48° NE 22:17:17 48° NE 22:21:05 10° N
Terra 3.4 22:18:50 24° WSW 22:20:02 27° W 22:24:03 10° NW
USA 81 4.5 22:19:22 46° SW 22:20:34 57° W 22:25:47 10° N
Cosmos 2297 Rocket 3.8 22:16:17 10° NW 22:20:41 24° WSW 22:22:24 20° SW
CZ-4C R/B 3.3 22:18:26 10° NW 22:25:33 58° WSW 22:27:43 46° S
Cosmos 2369 3.9 22:27:49 56° ENE 22:27:49 56° ENE 22:32:40 10° NNE
Meteor 2-1 Rocket 4.3 22:28:09 60° SW 22:28:59 71° WNW 22:34:31 10° N
SL-08 R/B 4.4 22:25:39 10° N 22:32:00 70° E 22:32:34 66° ESE
Meteor 2-8 Rocket 4.3 22:27:00 10° N 22:33:12 76° E 22:33:42 71° ESE
Cosmos 1725 Rocket 3.8 22:28:22 10° N 22:34:36 82° E 22:35:10 74° SE
Cosmos 2233 Rocket 4.1 22:28:51 10° N 22:34:57 58° ENE 22:35:19 57° E
ALOS 2 4.2 22:35:59 25° NE 22:35:59 25° NE 22:38:55 10° N
Cosmos 1459 Rocket 4.0 22:29:38 10° NNW 22:35:38 66° W 22:36:35 58° SW
Cosmos 2219 3.4 22:30:45 10° NW 22:36:15 56° WSW 22:36:27 55° WSW
Cosmos 2061 Rocket 4.0 22:35:02 10° N 22:41:29 72° E 22:42:00 68° ESE
Cosmos 2263 Rocket 2.3 22:42:24 10° NNW 22:47:47 66° W 22:47:47 66° W
Cosmos 2360 Rocket 4.4 22:51:06 12° ENE 22:51:06 12° ENE 22:51:53 10° ENE
USA 267 4.4 22:47:32 10° ENE 22:53:35 41° N 22:59:37 10° WNW
Cosmos 2082 3.9 22:49:02 10° NNW 22:54:20 60° W 22:54:20 60° W
Cosmos 2333 Rocket 4.4 23:03:47 13° ENE 23:03:47 13° ENE 23:04:57 10° ENE
Meteor 2-3 Rocket 4.2 22:56:18 10° NNW 23:01:46 49° W 23:01:58 49° W
Cosmos 2322 Rocket 4.0 23:03:59 20° ENE 23:03:59 20° ENE 23:06:17 10° NE
NOSS 3-2 (A) 4.0 22:58:37 10° NW 23:06:02 75° SW 23:07:20 64° S
Spot 4 4.4 23:09:20 55° N 23:09:20 55° N 23:13:08 10° NNW
Meteor 2-19 Rocket 4.3 23:16:07 86° NNE 23:16:07 86° NNE 23:22:07 10° N
SL-16 R/B 3.0 23:22:57 40° ENE 23:22:57 40° ENE 23:26:53 10° NE
Cosmos 1844 4.2 23:17:44 10° NNW 23:23:23 51° NE 23:23:28 51° ENE
USA 238 DEB 4.2 23:23:36 10° NW 23:30:50 64° NE 23:32:58 47° E
USA 238 4.2 23:23:42 10° NW 23:30:55 63° NE 23:33:05 47° E
CENTAUR R/B 3.6 23:23:03 10° NW 23:31:00 47° WSW 23:31:56 46° SW
Cosmos 1844 Rocket 3.0 23:27:00 10° NNW 23:32:08 62° NNE 23:32:08 62° NNE
Cosmos 1125 Rocket 4.0 23:27:24 10° NNW 23:31:49 55° NNE 23:31:49 55° NNE
Cosmos 1980 Rocket 3.5 23:36:55 29° W 23:38:38 36° NW 23:43:50 10° NNE
Cosmos 2346 Rocket 4.4 23:42:06 78° NE 23:42:06 78° NE 23:48:01 10° N
Cosmos 2278 3.9 23:44:41 67° N 23:44:41 67° N 23:49:37 10° NNE
Timation 2 Rocket 4.2 23:41:15 10° NNW 23:47:52 63° ENE 23:48:19 61° ENE
